Regional Weather Roundup
Issued by NWS Charleston, SC

Current Version | Previous Version | Text Only | Print | Product List | Glossary Off
Versions: 1 2 3 4 5 6 7 8 9 10 11 12 13 14 15 16 17 18 19 20 21 22 23 24 25 26 27 28 29 30 31 32 33 34 35 36 37 38 39 40 41 42 43 44 45 46 47 48 49 50

000
ASUS42 KCHS 040927
RWRCHS

REGIONAL WEATHER ROUNDUP
NATIONAL WEATHER SERVICE CHARLESTON SC
500 AM EDT MON MAY 04 2015

NOTE: "FAIR" INDICATES FEW OR NO CLOUDS BELOW 12,000 FEET WITH NO
SIGNIFICANT WEATHER AND/OR OBSTRUCTIONS TO VISIBILITY.

NOT ALL STATIONS ARE QUALITY CONTROLLED BY THE NATIONAL
WEATHER SERVICE. USE DATA WITH CAUTION...ESPECIALLY
DEWPOINT OBSERVATIONS.

SCZ027-030-031-034>040-042>050-041000-
...SOUTHEAST SOUTH CAROLINA...

CITY           SKY/WX    TMP DP  RH WIND       PRES   REMARKS
N CHARLESTON   PTCLDY    58  57  97 CALM      30.24R
WATERFRONT PRK   N/A     64 N/A N/A CALM        N/A
MOUNT PLEASANT FAIR      57  55  94 MISG      30.24R FOG
PINOPOLIS      NOT AVBL
MONCKS CORNER  PTSUNNY   57  54  88 CALM      30.24S
SUMMERVILLE    PTSUNNY   57  57 100 CALM      30.25R
BEAUFORT MCAS  CLEAR     59  57  93 CALM      30.23R
BEAUFORT ARPT  FAIR      61  61 100 CALM      30.22S
HILTON HEAD IS CLEAR     59  57  94 CALM      30.24S
WALTERBORO     CLOUDY    55  55 100 CALM      30.24S
ALLENDALE        N/A     55  54  94 CALM      30.23R

...SOUTHERN MIDLANDS AND PEE DEE...

CITY           SKY/WX    TMP DP  RH WIND       PRES   REMARKS
GEORGETOWN     NOT AVBL
KINGSTREE      NOT AVBL
ORANGEBURG     PTCLDY    54  52  93 CALM      30.23S
BARNWELL       FAIR      54  54 100 CALM      30.24R
AIKEN          FAIR      52  46  82 CALM      30.26R
MANNING        FAIR      54  48  82 CALM      30.24R
COLUMBIA       CLEAR     59  52  77 CALM      30.22R
SUMTER         CLEAR     56  54  94 NE2       30.22S
FLORENCE       CLEAR     57  55  93 CALM      30.24R
MYRTLE BEACH   CLEAR     59  55  88 CALM      30.26R
N MYRTLE BEACH CLEAR     56  55  97 CALM      30.24R FOG

$$

GAZ063-065-086>088-099>101-113>116-118-119-134>141-150-041000-
...SOUTHEAST GEORGIA...

CITY           SKY/WX    TMP DP  RH WIND       PRES   REMARKS
SAVANNAH ARPT  CLEAR     56  53  90 CALM      30.22S
HUNTER AAF     CLEAR     56  56 100 CALM      30.20R
FORT STEWART   CLEAR     54  51  90 CALM      30.20S
STATESBORO       N/A     53  53 100 CALM      30.22S
SYLVANIA       SUNNY     53  53 100 CALM      30.23S
CLAXTON        FAIR      52  52 100 CALM      30.22S

...CSRA...CENTRAL AND FAR SOUTHEAST GEORGIA...

CITY           SKY/WX    TMP DP  RH WIND       PRES   REMARKS
THOMSON        CLEAR     55  55  99 CALM      30.26S
AUGUSTA-BUSH   CLEAR     51  50  96 CALM      30.22S
AUGUSTA-DANIEL CLEAR     61  51  70 SE3       30.22S
SWAINSBORO     NOT AVBL
VIDALIA        CLEAR     55  54  94 CALM      30.22S
EASTMAN        FOG       52  52 100 CALM      30.23S VSB 1/4
HAZLEHURST     FAIR      57  56  95 CALM      30.20S
ALMA           CLEAR     52  51  97 CALM      30.21S
WAYCROSS       CLEAR     56  55  97 CALM      30.21S
JESUP          FAIR      54  52  94 CALM      30.22S
BAXLEY         FAIR      55  54  94 CALM      30.21S
BRUNSWICK      CLEAR     54  52  94 CALM      30.22S
SAINT SIMONS   CLEAR     60  57  89 CALM      30.21S

$$

SCZ027-028-034-036>038-045-046-048>050-GAZ119-141-041000-
...LAKE AND SUPPLEMENTAL COASTAL OBSERVATIONS...

STATION/POSITION TIME  TEMP    WIND        PRES    WAVE   SWELL
                       AIR SEA DIR/SP/G            HT/PER HT/PER/DIR
                 (UTC) (F)     (DEG/KT/KT) (MB)    (FT/S) (FT/S/D)
UPR LAKE MARION  NOT AVBL
WINYAH BAY       0845   57     310/  2     1023.0S
LAKE MURRAY      0800   66     190/  7/ 10 1022.4F
ACE BASIN NERRS  NOT AVBL
FORT PULASKI     0900   65 69  300/  2/  2 1023.8R
SAPELO ISLAND    0900   59      20/  3     1023.0S

$$

ANZ835-935-AMZ111-154-330-350-352-354-370-450-454-472-041000-
...C-MAN AND BUOY OBSERVATIONS...

STATION/POSITION TIME  TEMP    WIND        PRES    WAVE   SWELL
                       AIR SEA DIR/SP/G            HT/PER HT/PER/DIR
                 (UTC) (F)     (DEG/KT/KT) (MB)    (FT/S) (FT/S/D)
BUOY 41004       0850   72 73  130/  4/  6 1023.6R   3/10   3/10
BUOY 41008       0850   69 69   20/  4/  4 1023.4R   3/10   3/ 70/10
FOLLY BEACH CMAN 0900   67      20/  2/  2 1023.7R
CAPERS NEARSHORE 0808   69      20/  2/  4 1023.5S
FRIPP NEARSHORE  0800   68      CALM  /  2 1022.6S


STATION/POSITION TIME  TEMP    WIND        PRES    WAVE   SWELL
                       AIR SEA DIR/SP/G            HT/PER HT/PER/DIR
                 (UTC) (F)     (DEG/KT/KT) (MB)    (FT/S) (FT/S/D)
5E ST. MARYS GA  0821      72                N/A     2/11   2/ 80/11
FRYING PAN BUOY  0850   73 72  170/  8/ 10 1024.7S   3/11   3/ 70/11
BUOY 41025       0850   63     320/  6/  8 1024.4S   5/10   5/ 60/10
CAPE LOOKOUT NC  0900   65     320/  3/  3 1024.1S
BUOY 41002       0850   68 69   60/ 10/ 14 1024.5R   6/12   7/ 30/12
BUOY 41010       0820   72 78   80/ 14/ 19 1021.7F
ST AUGUSTINE FL  0900   71 71   30/ 10/ 10 1023.2S


$$



USA.gov is the U.S. government's official web portal to all federal, state and local government web resources and services.